When you browse on this site, cookies collect data to enhance your experience and personalize the content and advertising you see.
Visit our Privacy Policy to learn more. By continuing to use the site, you agree to this use of cookies and data.
  • In Romania
  • List of Countries
  • For 7 days
  • Water Temperature
  • Satellite Maps
  • Weather Map
  • Weather Widgets
  • user-avatar
    Login

    Hourly Weather Chester

    Today, 19 April, Friday

    Time Temperature Precipitation Wind Pressure Humidity
    00:00 +10°C° 0 mm 2 mps 770 mmHg 82%
    01:00 +10°C° 0 mm 2 mps 770 mmHg 82%
    02:00 +9°C° 0 mm 2 mps 770 mmHg 82%
    03:00 +10°C° 0 mm 1 mps 770 mmHg 83%
    04:00 +10°C° 0 mm 1 mps 770 mmHg 83%
    05:00 +10°C° 0 mm 1 mps 770 mmHg 83%
    06:00 +10°C° 0 mm 1 mps 771 mmHg 83%
    07:00 +12°C° 0 mm 2 mps 771 mmHg 78%
    08:00 +14°C° 0 mm 2 mps 771 mmHg 73%
    09:00 +16°C° 0 mm 2 mps 771 mmHg 68%
    10:00 +17°C° 0 mm 2 mps 771 mmHg 65%
    11:00 +19°C° 0 mm 3 mps 771 mmHg 62%
    12:00 +20°C° 0 mm 3 mps 771 mmHg 58%
    13:00 +21°C° 0 mm 3 mps 771 mmHg 58%
    14:00 +21°C° 0 mm 2 mps 771 mmHg 57%
    15:00 +23°C° 0 mm 2 mps 771 mmHg 56%
    16:00 +21°C° 0 mm 2 mps 771 mmHg 61%
    17:00 +20°C° 0 mm 2 mps 771 mmHg 65%
    18:00 +21°C° 0 mm 1 mps 771 mmHg 70%
    19:00 +19°C° 0 mm 1 mps 772 mmHg 74%
    20:00 +16°C° 0 mm 2 mps 772 mmHg 78%
    21:00 +15°C° 0 mm 2 mps 773 mmHg 82%
    22:00 +14°C° 0 mm 2 mps 773 mmHg 84%
    23:00 +14°C° 0 mm 2 mps 773 mmHg 86%

    Tomorrow, 20 April, Saturday

    Time Temperature Precipitation Wind Pressure Humidity
    00:00 +13°C° 0 mm 2 mps 773 mmHg 88%
    01:00 +12°C° 0 mm 2 mps 773 mmHg 88%
    02:00 +12°C° 0 mm 2 mps 773 mmHg 87%
    03:00 +12°C° 0 mm 2 mps 773 mmHg 87%
    04:00 +12°C° 0 mm 2 mps 773 mmHg 86%
    05:00 +12°C° 0 mm 1 mps 773 mmHg 86%
    06:00 +12°C° 0 mm 1 mps 773 mmHg 85%
    07:00 +14°C° 0 mm 1 mps 773 mmHg 80%
    08:00 +15°C° 0 mm 1 mps 773 mmHg 75%
    09:00 +18°C° 0 mm 1 mps 773 mmHg 70%
    10:00 +20°C° 0 mm 1 mps 773 mmHg 66%
    11:00 +21°C° 0 mm 1 mps 772 mmHg 63%
    12:00 +22°C° 0 mm 1 mps 772 mmHg 59%
    13:00 +22°C° 0 mm 1 mps 772 mmHg 58%
    14:00 +23°C° 0 mm 1 mps 771 mmHg 56%
    15:00 +23°C° 0 mm 1 mps 771 mmHg 55%
    16:00 +22°C° 0 mm 1 mps 771 mmHg 59%
    17:00 +21°C° 0 mm 1 mps 771 mmHg 63%
    18:00 +20°C° 0 mm 1 mps 770 mmHg 67%
    19:00 +19°C° 0 mm 1 mps 770 mmHg 70%
    20:00 +16°C° 0 mm 1 mps 771 mmHg 72%
    21:00 +14°C° 0 mm 1 mps 771 mmHg 75%
    22:00 +14°C° 0 mm 1 mps 770 mmHg 77%
    23:00 +13°C° 0 mm 2 mps 770 mmHg 79%

    Day after tomorrow, 21 April, Sunday

    Time Temperature Precipitation Wind Pressure Humidity
    00:00 +13°C° 0 mm 2 mps 770 mmHg 81%
    01:00 +12°C° 0 mm 2 mps 769 mmHg 83%
    02:00 +12°C° 0 mm 2 mps 769 mmHg 84%
    03:00 +12°C° 0 mm 2 mps 768 mmHg 86%
    04:00 +12°C° 0 mm 2 mps 768 mmHg 87%
    05:00 +10°C° 0 mm 2 mps 768 mmHg 87%
    06:00 +10°C° 0 mm 2 mps 767 mmHg 88%
    07:00 +13°C° 0 mm 2 mps 767 mmHg 84%
    08:00 +14°C° 0 mm 3 mps 766 mmHg 79%
    09:00 +17°C° 0 mm 3 mps 766 mmHg 75%
    10:00 +18°C° 0 mm 3 mps 765 mmHg 70%
    11:00 +19°C° 0 mm 3 mps 765 mmHg 66%
    12:00 +21°C° 0 mm 3 mps 764 mmHg 61%
    13:00 +21°C° 0 mm 4 mps 763 mmHg 61%
    14:00 +21°C° 0 mm 4 mps 763 mmHg 60%
    15:00 +21°C° 0 mm 4 mps 762 mmHg 59%
    16:00 +20°C° 0 mm 3 mps 762 mmHg 63%
    17:00 +20°C° 0 mm 3 mps 761 mmHg 68%
    18:00 +19°C° 0 mm 3 mps 761 mmHg 72%
    19:00 +17°C° 0 mm 3 mps 760 mmHg 75%
    20:00 +16°C° 0 mm 2 mps 760 mmHg 78%
    21:00 +14°C° 0 mm 2 mps 760 mmHg 81%
    22:00 +14°C° 0 mm 2 mps 760 mmHg 82%
    23:00 +13°C° 0 mm 2 mps 760 mmHg 84%

    22 April, Monday

    Time Temperature Precipitation Wind Pressure Humidity
    00:00 +12°C° 0 mm 2 mps 759 mmHg 85%
    01:00 +12°C° 0 mm 2 mps 759 mmHg 86%
    02:00 +10°C° 0 mm 3 mps 758 mmHg 86%
    03:00 +10°C° 0 mm 3 mps 757 mmHg 86%
    04:00 +10°C° 0 mm 3 mps 757 mmHg 88%
    05:00 +10°C° 0 mm 3 mps 756 mmHg 89%
    06:00 +10°C° 0 mm 3 mps 756 mmHg 90%
    07:00 +12°C° 0 mm 4 mps 755 mmHg 84%
    08:00 +13°C° 0 mm 4 mps 755 mmHg 79%
    09:00 +15°C° 0 mm 4 mps 755 mmHg 73%
    10:00 +17°C° 0 mm 5 mps 754 mmHg 68%
    11:00 +19°C° 0 mm 5 mps 754 mmHg 63%
    12:00 +20°C° 0 mm 6 mps 753 mmHg 59%
    13:00 +21°C° 0 mm 5 mps 753 mmHg 58%
    14:00 +21°C° 0 mm 5 mps 752 mmHg 58%
    15:00 +21°C° 0 mm 5 mps 752 mmHg 57%
    16:00 +20°C° 0 mm 5 mps 751 mmHg 62%
    17:00 +19°C° 0 mm 4 mps 751 mmHg 67%
    18:00 +18°C° 0 mm 4 mps 751 mmHg 71%
    19:00 +17°C° 0 mm 4 mps 751 mmHg 72%
    20:00 +15°C° 0 mm 4 mps 751 mmHg 73%
    21:00 +14°C° 0 mm 4 mps 751 mmHg 74%
    22:00 +13°C° 0 mm 3 mps 751 mmHg 75%
    23:00 +12°C° 0 mm 3 mps 751 mmHg 77%

    23 April, Tuesday

    Time Temperature Precipitation Wind Pressure Humidity
    00:00 +11°C° 0 mm 3 mps 750 mmHg 79%
    01:00 +11°C° 0 mm 3 mps 750 mmHg 80%
    02:00 +10°C° 0 mm 3 mps 750 mmHg 81%
    03:00 +10°C° 0 mm 2 mps 749 mmHg 81%
    04:00 +10°C° 0 mm 3 mps 749 mmHg 82%
    05:00 +10°C° 0 mm 3 mps 749 mmHg 82%
    06:00 +10°C° 0 mm 3 mps 749 mmHg 82%
    07:00 +11°C° 0 mm 4 mps 749 mmHg 78%
    08:00 +13°C° 0 mm 4 mps 749 mmHg 75%
    09:00 +14°C° 0 mm 5 mps 749 mmHg 71%
    10:00 +15°C° 0 mm 5 mps 749 mmHg 68%
    11:00 +17°C° 0 mm 5 mps 749 mmHg 66%
    12:00 +19°C° 0 mm 5 mps 748 mmHg 64%
    13:00 +19°C° 0 mm 5 mps 748 mmHg 64%
    14:00 +19°C° 0 mm 5 mps 748 mmHg 65%
    15:00 +19°C° 0 mm 6 mps 748 mmHg 65%
    16:00 +17°C° 0.3 mm 5 mps 748 mmHg 70%
    17:00 +18°C° 0.3 mm 4 mps 748 mmHg 75%
    18:00 +17°C° 0.3 mm 4 mps 748 mmHg 80%
    19:00 +14°C° 0.1 mm 4 mps 748 mmHg 81%
    20:00 +13°C° 0.1 mm 4 mps 748 mmHg 82%
    21:00 +12°C° 0.1 mm 4 mps 749 mmHg 83%
    22:00 +12°C° 0 mm 4 mps 749 mmHg 84%
    23:00 +11°C° 0 mm 4 mps 748 mmHg 85%

    24 April, Wednesday

    Time Temperature Precipitation Wind Pressure Humidity
    00:00 +11°C° 0 mm 4 mps 748 mmHg 86%
    01:00 +10°C° 0 mm 4 mps 748 mmHg 87%
    02:00 +8°C° 0 mm 4 mps 748 mmHg 89%
    03:00 +8°C° 0 mm 4 mps 748 mmHg 90%
    04:00 +8°C° 0 mm 4 mps 748 mmHg 89%
    05:00 +8°C° 0 mm 4 mps 748 mmHg 88%
    06:00 +8°C° 0 mm 4 mps 748 mmHg 88%
    07:00 +9°C° 0 mm 5 mps 748 mmHg 86%
    08:00 +12°C° 0 mm 5 mps 747 mmHg 84%
    09:00 +13°C° 0 mm 6 mps 747 mmHg 82%
    10:00 +13°C° 0.6 mm 6 mps 748 mmHg 84%
    11:00 +13°C° 0.6 mm 6 mps 748 mmHg 87%
    12:00 +13°C° 0.6 mm 6 mps 748 mmHg 89%
    13:00 +14°C° 0.2 mm 6 mps 748 mmHg 82%
    14:00 +15°C° 0.2 mm 7 mps 748 mmHg 75%
    15:00 +15°C° 0.2 mm 7 mps 748 mmHg 68%
    16:00 +15°C° 0.1 mm 6 mps 749 mmHg 69%
    17:00 +14°C° 0.1 mm 6 mps 749 mmHg 70%
    18:00 +13°C° 0.1 mm 6 mps 749 mmHg 70%
    19:00 +11°C° 0 mm 6 mps 749 mmHg 71%
    20:00 +11°C° 0 mm 6 mps 749 mmHg 72%
    21:00 +10°C° 0 mm 6 mps 749 mmHg 73%
    22:00 +9°C° 0 mm 6 mps 749 mmHg 76%
    23:00 +9°C° 0 mm 5 mps 749 mmHg 78%
    Show more